Regional Weather Roundup
Issued by NWS

Home | Current Version | Previous Version | Text Only | Print | Product List | Glossary Off
Versions: 1 2 3 4 5 6 7 8 9 10 11 12 13 14 15 16 17 18 19 20 21 22 23 24 25 26 27 28 29 30 31 32 33 34 35 36 37 38 39 40 41 42 43 44 45 46 47 48 49 50

000
ASUS43 KFSD 241002
RWRSD

WEATHER ROUNDUP FOR SOUTH DAKOTA
NATIONAL WEATHER SERVICE SIOUX FALLS SD
400 AM CST FRI NOV 24 2017

NOTE: "FAIR" INDICATES FEW OR NO CLOUDS BELOW 12,000 FEET WITH NO
SIGNIFICANT WEATHER AND/OR OBSTRUCTIONS TO VISIBILITY.


SDZ001>005-009-010-012>017-241100-
NORTHWEST AND NORTH CENTRAL SOUTH DAKOTA

CITY           SKY/WX    TMP DP  RH WIND       PRES   REMARKS
FAITH            N/A     51  35  54 W16       29.46F
MOBRIDGE       CLEAR     48  34  58 N3        29.38F
$$

SDZ012>016-024>037-041>051-057-063-072>074-241100-
SOUTHWEST AND SOUTH CENTRAL SOUTH DAKOTA

CITY           SKY/WX    TMP DP  RH WIND       PRES   REMARKS
RAPID CTY ARPT CLEAR     52  31  44 SW9       29.55S
PIERRE         CLOUDY    47  37  68 SW6       29.46F
CUSTER         CLEAR     50  31  48 W20G29    29.65F
ELLSWORTH AFB  CLEAR     59  30  33 W15       29.54S
PHILIP         CLEAR     46  38  73 W8        29.50F
PINE RIDGE     CLEAR     48  37  65 S5        29.62F
SPEARFISH      FAIR      61  30  31 SW22G32   29.56S
WINNER         FAIR      54  37  52 W7        29.50F
$$

SDZ004>011-016>023-039-040-241100-
NORTHEAST SOUTH DAKOTA

CITY           SKY/WX    TMP DP  RH WIND       PRES   REMARKS
ABERDEEN       CLOUDY    40  36  86 S8        29.39F
WATERTOWN      CLEAR     38  35  89 SE5       29.41F
BROOKINGS      CLEAR     38  34  85 SE8       29.45F
SISSETON         N/A     54  38  54 SW20G26   29.32F
$$

SDZ017-020-022-023-036>040-048>070-241100-
SOUTHEAST SOUTH DAKOTA

CITY           SKY/WX    TMP DP  RH WIND       PRES   REMARKS
SIOUX FALLS    CLEAR     44  39  82 SW3       29.48F
HURON          CLEAR     36  34  92 CALM      29.43F
CHAMBERLAIN    CLEAR     47  39  72 W5        29.48F
MITCHELL       CLEAR     46  38  73 SW6       29.45F
YANKTON        CLEAR     50  40  68 CALM      29.49F
$$

ABBREVIATIONS USED IN REMARKS
   TC - TEMPERATURE IN CELSIUS
  WCI - WIND CHILL INDEX
   HX - HEAT INDEX
  VSB - VISIBILITY





USA.gov is the U.S. government's official web portal to all federal, state and local government web resources and services.